(113039) = 2002 RH49

Discovered at Socorro on 2002-09-05 by LINEAR.

Orbit

Orbit type: Main Belt

Note: WebGL enabled browser required.

epoch2023-09-13.0
epoch JD2460200.5
perihelion date2023-04-12.14642
perihelion JD2460046.64642
argument of perihelion (°)138.58150
ascending node (°)140.64379
inclination (°)5.50047
eccentricity0.1759737
perihelion distance (AU)1.9076862
Tisserand w.r.t. Jupiter3.6
ΔV w.r.t. Earth (km/sec)8.7
semimajor axis (AU)2.3150792
mean anomaly (°)43.04896
mean daily motion (°/day)0.27980480
aphelion distance (AU)2.722
period (years)3.52
P-vector [x]0.16224851
P-vector [y]-0.92867807
P-vector [z]-0.33351532
Q-vector [x]0.98487594
Q-vector [y]0.17323069
Q-vector [z]-0.00324089
absolute magnitude16.38
phase slope0.15
uncertainty0
referenceMPEC 2024-A55
observations used971
oppositions17
arc length (days)9327
first opposition used1998
last opposition used2023
residual rms (arc-secs)0.72
perturbers coarse indicatorM-v
perturbers precise indicator003Ek
first observation date used1998-05-26.0
last observation date used2023-12-08.0
computer nameMPCLINUX
JD of orbit computation2456966.704923
perihelion JD uncertainty (days)7.0273E-05
argument of perihelion uncertainty (°)7.0109E-05
ascending node uncertainty (°)6.7834E-05
inclination uncertainty (°)4.1355E-06
eccentricity uncertainty 4.3867E-08
perihelion distance uncertainty (AU)1.0247E-07
Minimum Orbit Intersection Distances (in AU)
for orbit epoch: 2460200.5, reference: E2024-A55
Mercury1.4536
Venus1.18457
Earth0.89477
Mars0.4748
Jupiter2.41168
Saturn6.33953
Uranus15.9157
Neptune27.2867

Observations

973 total observations over interval: 1998 05 26.29259 – 2023 12 08.094453
These data are available for download (format description).

Date (UT) J2000 RA J2000 Dec Magn Location Ref
1998 05 26.29259 16 34 40.45 -10 56 56.7 19.1   704 – Lincoln Laboratory ETS, New Mexico MPS 83366
1998 05 26.31024 16 34 39.36 -10 56 52.0 19.2   704 – Lincoln Laboratory ETS, New Mexico MPS 83366
1998 05 26.32798 16 34 38.32 -10 56 52.6 18.9   704 – Lincoln Laboratory ETS, New Mexico MPS 83366
1998 05 26.34598 16 34 37.40 -10 56 51.7 18.9   704 – Lincoln Laboratory ETS, New Mexico MPS 83366
1998 05 26.36356 16 34 36.16 -10 56 47.1 19.4   704 – Lincoln Laboratory ETS, New Mexico MPS 83366
1998 06 03.28328 16 27 16.61 -10 48 09.1 18.9   704 – Lincoln Laboratory ETS, New Mexico MPS 83366
1998 06 03.29628 16 27 15.59 -10 48 07.4 18.8   704 – Lincoln Laboratory ETS, New Mexico MPS 83366
1998 06 03.30933 16 27 15.00 -10 48 08.8 18.8   704 – Lincoln Laboratory ETS, New Mexico MPS 83366
1998 06 03.32221 16 27 13.75 -10 48 07.1 18.9   704 – Lincoln Laboratory ETS, New Mexico MPS 83366
2001 02 17.32369 10 59 34.53 +09 12 11.5 19.3   704 – Lincoln Laboratory ETS, New Mexico MPS 83366
2001 02 17.33782 10 59 33.73 +09 12 18.5 19.3   704 – Lincoln Laboratory ETS, New Mexico MPS 83366
2001 02 17.35194 10 59 32.98 +09 12 25.6 19.4   704 – Lincoln Laboratory ETS, New Mexico MPS 83366
2001 02 17.36605 10 59 32.27 +09 12 32.3 19.5   704 – Lincoln Laboratory ETS, New Mexico MPS 83366
2002 08 12.32805 00 23 29.59 -01 30 54.6 20.0   704 – Lincoln Laboratory ETS, New Mexico MPS 82976
2002 08 12.34309 00 23 29.44 -01 30 58.9 19.6   704 – Lincoln Laboratory ETS, New Mexico MPS 82976
2002 08 12.35805 00 23 29.35 -01 31 03.6 19.4   704 – Lincoln Laboratory ETS, New Mexico MPS 82976
2002 08 12.37300 00 23 29.26 -01 31 07.9 19.9   704 – Lincoln Laboratory ETS, New Mexico MPS 82976
2002 09 05.27433 00 12 56.99 -04 25 57.4 19.1   704 – Lincoln Laboratory ETS, New Mexico MPS 61645
2002 09 05.28867 00 12 56.37 -04 26 05.6 18.9   704 – Lincoln Laboratory ETS, New Mexico MPS 61645
2002 09 05.30449 00 12 55.64 -04 26 13.6 18.8   704 – Lincoln Laboratory ETS, New Mexico MPS 61645
2002 09 05.31896 00 12 54.91 -04 26 21.4 19.6   704 – Lincoln Laboratory ETS, New Mexico MPS 61645
2002 09 05.33362 00 12 54.22 -04 26 28.8 19.2   704 – Lincoln Laboratory ETS, New Mexico MPS 61645
2002 09 06.27155 00 12 11.71 -04 34 48.1 18.9   704 – Lincoln Laboratory ETS, New Mexico MPS 61645
2002 09 06.28578 00 12 11.05 -04 34 55.3 19.2   704 – Lincoln Laboratory ETS, New Mexico MPS 61645
2002 09 06.30056 00 12 10.27 -04 35 02.3 18.7   704 – Lincoln Laboratory ETS, New Mexico MPS 61645
2002 09 06.31470 00 12 09.58 -04 35 10.5 19.0   704 – Lincoln Laboratory ETS, New Mexico MPS 61645
2002 09 06.32890 00 12 08.86 -04 35 17.0 18.9   704 – Lincoln Laboratory ETS, New Mexico MPS 61645
2002 09 15.48935 00 04 29.82 -05 57 03.0 18.4   644 – Palomar Mountain/NEAT MPS 61645
2002 09 15.50011 00 04 29.24 -05 57 08.5 18.5   644 – Palomar Mountain/NEAT MPS 61645
2002 09 15.51078 00 04 28.66 -05 57 14.2 18.6   644 – Palomar Mountain/NEAT MPS 61645
2002 09 16.31090 00 03 47.04 -06 04 14.5 19.9   608 – Haleakala-AMOS MPS 63442
2002 09 16.32171 00 03 46.42 -06 04 19.9 19.8   608 – Haleakala-AMOS MPS 63442
2002 09 16.33307 00 03 45.77 -06 04 25.6 20.0   608 – Haleakala-AMOS MPS 63442
2002 10 03.24446 23 49 10.78 -08 13 59.8 19.3   704 – Lincoln Laboratory ETS, New Mexico MPS 63442
2002 10 03.25946 23 49 10.04 -08 14 03.2 20.1   704 – Lincoln Laboratory ETS, New Mexico MPS 63442
2002 10 03.27448 23 49 09.23 -08 14 09.2 19.2   704 – Lincoln Laboratory ETS, New Mexico MPS 63442
2002 10 03.28941 23 49 08.54 -08 14 15.1 19.5   704 – Lincoln Laboratory ETS, New Mexico MPS 63442
2002 10 03.30435 23 49 07.82 -08 14 21.5 19.6   704 – Lincoln Laboratory ETS, New Mexico MPS 63442
2003 12 17.45615 07 36 29.71 +16 30 23.0 21.1 V 691 – Steward Observatory, Kitt Peak-Spacewatch MPS 93691
2003 12 17.48517 07 36 28.29 +16 30 26.8 20.7 V 691 – Steward Observatory, Kitt Peak-Spacewatch MPS 93691
2003 12 17.51427 07 36 26.84 +16 30 31.1 21.4 V 691 – Steward Observatory, Kitt Peak-Spacewatch MPS 93691
2004 01 16.22097 07 06 26.17 +18 02 46.2 19.5   644 – Palomar Mountain/NEAT MPS 96980
2004 01 16.28319 07 06 22.09 +18 03 00.0 20.0   644 – Palomar Mountain/NEAT MPS 96981
2004 01 16.35050 07 06 17.70 +18 03 14.3 20.3   644 – Palomar Mountain/NEAT MPS 96981
2005 04 20.37546 16 11 18.34 -10 52 35.4 19.0 V 703 – Catalina Sky Survey MPS 132567
2005 04 20.38404 16 11 18.20 -10 52 33.8 18.9 V 703 – Catalina Sky Survey MPS 132567
2005 04 20.39263 16 11 17.98 -10 52 30.3 18.9 V 703 – Catalina Sky Survey MPS 132567
2005 04 20.40124 16 11 17.80 -10 52 30.1 18.6 V 703 – Catalina Sky Survey MPS 132567
2005 04 30.36725 16 06 56.64 -10 05 21.2 18.9 V 691 – Steward Observatory, Kitt Peak-Spacewatch MPS 133291
2005 04 30.38552 16 06 55.94 -10 05 16.1 19.1 V 691 – Steward Observatory, Kitt Peak-Spacewatch MPS 133291
2005 04 30.40345 16 06 55.26 -10 05 10.9 19.1 V 691 – Steward Observatory, Kitt Peak-Spacewatch MPS 133291
2005 05 03.31621 16 05 05.05 -09 51 39.0 18.9 V 691 – Steward Observatory, Kitt Peak-Spacewatch MPS 133291
2005 05 03.33363 16 05 04.30 -09 51 34.2 18.8 V 691 – Steward Observatory, Kitt Peak-Spacewatch MPS 133291
2005 05 03.35118 16 05 03.54 -09 51 29.3 18.8 V 691 – Steward Observatory, Kitt Peak-Spacewatch MPS 133291
2005 05 03.39701 16 05 01.52 -09 51 17.1 19.0   704 – Lincoln Laboratory ETS, New Mexico MPS 133291
2005 05 03.40938 16 05 00.97 -09 51 13.5 19.7   704 – Lincoln Laboratory ETS, New Mexico MPS 133291
2005 05 03.42048 16 05 00.51 -09 51 10.8 19.3   704 – Lincoln Laboratory ETS, New Mexico MPS 133291
2005 05 03.43118 16 05 00.04 -09 51 08.0 19.2   704 – Lincoln Laboratory ETS, New Mexico MPS 133291
2005 05 03.44121 16 04 59.64 -09 51 05.4 19.2   704 – Lincoln Laboratory ETS, New Mexico MPS 133291
2005 05 06.51907 16 02 48.02 -09 37 12.8 18.8   608 – Haleakala-AMOS MPS 133291
2005 05 06.52973 16 02 47.50 -09 37 09.9 19.2   608 – Haleakala-AMOS MPS 133291
2005 05 06.54020 16 02 46.99 -09 37 07.0 19.5   608 – Haleakala-AMOS MPS 133291
2005 05 09.28202 16 00 39.09 -09 25 19.7 18.6 V 691 – Steward Observatory, Kitt Peak-Spacewatch MPS 133935
2005 05 09.29988 16 00 38.17 -09 25 15.2 18.6 V 691 – Steward Observatory, Kitt Peak-Spacewatch MPS 133935
2005 05 09.31754 16 00 37.26 -09 25 10.8 18.5 V 691 – Steward Observatory, Kitt Peak-Spacewatch MPS 133935
2005 05 13.31718 15 57 14.97 -09 09 11.6 18.5 V 691 – Steward Observatory, Kitt Peak-Spacewatch MPS 133935
2005 05 13.33498 15 57 13.99 -09 09 07.9 18.6 V 691 – Steward Observatory, Kitt Peak-Spacewatch MPS 133935
2005 05 13.35228 15 57 13.03 -09 09 03.7 18.6 V 691 – Steward Observatory, Kitt Peak-Spacewatch MPS 133935
2005 05 16.28596 15 54 36.38 -08 58 30.3 18.2   704 – Lincoln Laboratory ETS, New Mexico MPS 134798
2005 05 16.29529 15 54 35.83 -08 58 29.4 18.4   704 – Lincoln Laboratory ETS, New Mexico MPS 134798
2005 05 16.30471 15 54 35.29 -08 58 27.0 18.1   704 – Lincoln Laboratory ETS, New Mexico MPS 134798
2005 05 16.31404 15 54 34.79 -08 58 25.5 18.5   704 – Lincoln Laboratory ETS, New Mexico MPS 134798
2005 05 16.32341 15 54 34.20 -08 58 22.9 19.0   704 – Lincoln Laboratory ETS, New Mexico MPS 134798
2005 05 20.31152 15 50 54.24 -08 45 55.5 18.0 V G96 – Mt. Lemmon Survey MPS 134798
2005 05 20.31815 15 50 53.88 -08 45 54.3 17.9 V G96 – Mt. Lemmon Survey MPS 134798
2005 05 20.32477 15 50 53.48 -08 45 53.3 17.9 V G96 – Mt. Lemmon Survey MPS 134798
2005 05 20.33134 15 50 53.08 -08 45 52.1 17.9 V G96 – Mt. Lemmon Survey MPS 134798
2005 06 02.24914 15 39 14.61 -08 24 07.4 18.1 V 703 – Catalina Sky Survey MPS 135585
2005 06 02.25554 15 39 14.29 -08 24 06.7 18.2 V 703 – Catalina Sky Survey MPS 135585
2005 06 02.26196 15 39 13.89 -08 24 06.6 18.0 V 703 – Catalina Sky Survey MPS 135585
2005 06 05.22858 15 36 50.71 -08 23 44.4 18.7 V 691 – Steward Observatory, Kitt Peak-Spacewatch MPS 135926
2005 06 05.24942 15 36 49.67 -08 23 44.6 18.7 V 691 – Steward Observatory, Kitt Peak-Spacewatch MPS 135926
2005 06 05.26681 15 36 48.84 -08 23 45.9 18.4 V 691 – Steward Observatory, Kitt Peak-Spacewatch MPS 135926
2005 06 28.19372 15 26 28.28 -09 22 50.1 18.4   644 – Palomar Mountain/NEAT MPS 136963
2005 06 28.21635 15 26 28.12 -09 22 56.7 18.5   644 – Palomar Mountain/NEAT MPS 136963
